,,,PA_Meas_PMT16A,,PR_Meas_QMR101_102,,RH_Meas_QMH101,,SR_Meas_QMS101,,TA_Meas_QMH101,,GenWind,,GenWind,
date,time,status,PA,status,PR,status,RH,status,SR,status,TA,status,DirAvg,status,SpdAvg,
2012-02-25, 00:00:05,VALID,998.231,VALID,0,VALID,88.9843,VALID,0,VALID,24.4623,VALID,133,VALID,0.46875,
2012-02-25, 00:01:05,VALID,998.212,VALID,0,VALID,88.9156,VALID,0,VALID,24.4818,VALID,133,VALID,0.894922,
2012-02-25, 00:02:05,VALID,998.202,VALID,0,VALID,88.8851,VALID,0,VALID,24.4818,VALID,145,VALID,1.15781,
2012-02-25, 00:03:05,VALID,998.164,VALID,0,VALID,88.6333,VALID,0,VALID,24.5209,VALID,153,VALID,1.18359,
2012-02-25, 00:04:05,VALID,998.164,VALID,0,VALID,88.3281,VALID,0,VALID,24.5599,VALID,172,VALID,1.08633,
2012-02-25, 00:05:05,VALID,998.126,VALID,0,VALID,88.1603,VALID,0,VALID,24.5989,VALID,172,VALID,1.23125,
2012-02-25, 00:06:05,VALID,998.101,VALID,0,VALID,87.9543,VALID,0,VALID,24.6184,VALID,173,VALID,1.15586,
2012-02-25, 00:07:05,VALID,998.083,VALID,0,VALID,87.794,VALID,0,VALID,24.677,VALID,197,VALID,0.965625,
2012-02-25, 00:08:05,VALID,998.055,VALID,0,VALID,87.588,VALID,0,VALID,24.716,VALID,199,VALID,0.481641,
2012-02-25, 00:09:05,VALID,998.068,VALID,0,VALID,87.054,VALID,0,VALID,24.6965,VALID,41,VALID,0.913281,
2012-02-25, 00:10:05,VALID,998.031,VALID,0,VALID,87.588,VALID,0,VALID,24.638,VALID,50,VALID,1.13398,
2012-02-25, 00:11:05,VALID,998.03,VALID,0,VALID,88.1832,VALID,0,VALID,24.5599,VALID,58,VALID,0.652734,
2012-02-25, 00:12:05,VALID,998,VALID,0,VALID,88.3968,VALID,0,VALID,24.5209,VALID,51,VALID,0.789453,
2012-02-25, 00:13:05,VALID,997.985,VALID,0,VALID,88.496,VALID,0,VALID,24.48,VALID,51,VALID,0.714063,
2012-02-25, 00:14:05,VALID,997.952,VALID,0,VALID,88.5494,VALID,0,VALID,24.4818,VALID,53,VALID,0.243359,
2012-02-25, 00:15:05,VALID,997.912,VALID,0,VALID,88.29,VALID,0,VALID,24.4818,VALID,53,VALID,0.0457031,
2012-02-25, 00:16:05,VALID,997.91,VALID,0,VALID,88.3129,VALID,0,VALID,24.4818,VALID,53,VALID,0.221484,
2012-02-25, 00:17:05,VALID,997.892,VALID,0,VALID,88.4197,VALID,0,VALID,24.4818,VALID,53,VALID,0.3125,
2012-02-25, 00:18:05,VALID,997.854,VALID,0,VALID,88.5341,VALID,0,VALID,24.4818,VALID,53,VALID,0.212891,
2012-02-25, 00:19:05,VALID,997.857,VALID,0,VALID,88.4807,VALID,0,VALID,24.4623,VALID,53,VALID,0.255859,
2012-02-25, 00:20:05,VALID,997.839,VALID,0,VALID,88.3129,VALID,0,VALID,24.4642,VALID,53,VALID,0,
2012-02-25, 00:21:05,VALID,997.85,VALID,0,VALID,88.3357,VALID,0,VALID,24.4037,VALID,53,VALID,0,
2012-02-25, 00:22:05,VALID,997.835,VALID,0,VALID,88.4578,VALID,0,VALID,24.3647,VALID,53,VALID,0,
2012-02-25, 00:23:05,VALID,997.829,VALID,0,VALID,88.6409,VALID,0,VALID,24.3452,VALID,53,VALID,0,
2012-02-25, 00:24:05,VALID,997.815,VALID,0,VALID,88.8164,VALID,0,VALID,24.3257,VALID,53,VALID,0,
2012-02-25, 00:25:05,VALID,997.784,VALID,0,VALID,88.824,VALID,0,VALID,24.3257,VALID,53,VALID,0,
2012-02-25, 00:26:05,VALID,997.777,VALID,0,VALID,88.9995,VALID,0,VALID,24.3257,VALID,53,VALID,0.404687,
2012-02-25, 00:27:05,VALID,997.769,VALID,0,VALID,89.1216,VALID,0,VALID,24.3062,VALID,110,VALID,1.19727,
2012-02-25, 00:28:05,VALID,997.758,VALID,0,VALID,89.3657,VALID,0,VALID,24.3062,VALID,110,VALID,1.16602,
2012-02-25, 00:29:05,VALID,997.706,VALID,0,VALID,89.8617,VALID,0,VALID,24.2848,VALID,110,VALID,0.757422,
2012-02-25, 00:30:05,VALID,997.694,VALID,0,VALID,89.938,VALID,0,VALID,24.3452,VALID,110,VALID,0.755078,
2012-02-25, 00:31:05,VALID,997.685,VALID,0,VALID,89.9837,VALID,0,VALID,24.3647,VALID,110,VALID,0.88125,
2012-02-25, 00:32:05,VALID,997.656,VALID,0,VALID,89.8083,VALID,0,VALID,24.3842,VALID,100,VALID,0.938672,
2012-02-25, 00:33:05,VALID,997.652,VALID,0,VALID,89.7854,VALID,0,VALID,24.3647,VALID,100,VALID,0.890234,
2012-02-25, 00:34:05,VALID,997.636,VALID,0,VALID,89.8464,VALID,0,VALID,24.3433,VALID,80,VALID,0.983984,
2012-02-25, 00:35:05,VALID,997.607,VALID,0,VALID,89.9303,VALID,0,VALID,24.3238,VALID,77,VALID,0.835938,
2012-02-25, 00:36:05,VALID,997.594,VALID,0,VALID,89.9761,VALID,0,VALID,24.3062,VALID,76,VALID,0.719531,
2012-02-25, 00:37:05,VALID,997.566,VALID,0,VALID,89.9303,VALID,0,VALID,24.2653,VALID,44,VALID,0.981641,
2012-02-25, 00:38:05,VALID,997.527,VALID,0,VALID,89.999,VALID,0,VALID,24.2281,VALID,44,VALID,0.856641,
2012-02-25, 00:39:05,VALID,997.495,VALID,0,VALID,89.9914,VALID,0,VALID,24.1891,VALID,44,VALID,0.747266,
2012-02-25, 00:40:05,VALID,997.497,VALID,0,VALID,90.1287,VALID,0,VALID,24.15,VALID,44,VALID,0.766406,
2012-02-25, 00:41:05,VALID,997.486,VALID,0,VALID,90.3347,VALID,0,VALID,24.1305,VALID,44,VALID,0.727734,
2012-02-25, 00:42:05,VALID,997.453,VALID,0,VALID,90.4415,VALID,0,VALID,24.1092,VALID,44,VALID,0.746875,
2012-02-25, 00:43:05,VALID,997.414,VALID,0,VALID,90.5254,VALID,0,VALID,24.0897,VALID,44,VALID,0.835938,
2012-02-25, 00:44:05,VALID,997.424,VALID,0,VALID,90.5254,VALID,0,VALID,24.0915,VALID,44,VALID,0.746094,
2012-02-25, 00:45:05,VALID,997.433,VALID,0,VALID,90.3881,VALID,0,VALID,24.072,VALID,44,VALID,0.482031,
2012-02-25, 00:46:05,VALID,997.424,VALID,0,VALID,90.3423,VALID,0,VALID,24.0311,VALID,44,VALID,0.357031,
2012-02-25, 00:47:05,VALID,997.409,VALID,0,VALID,90.4568,VALID,0,VALID,24.0329,VALID,44,VALID,0.445703,
2012-02-25, 00:48:05,VALID,997.384,VALID,0,VALID,90.4873,VALID,0,VALID,23.9921,VALID,44,VALID,0.306641,
2012-02-25, 00:49:05,VALID,997.364,VALID,0,VALID,90.5102,VALID,0,VALID,23.9939,VALID,44,VALID,0.153906,
2012-02-25, 00:50:05,VALID,997.364,VALID,0,VALID,90.4949,VALID,0,VALID,23.9531,VALID,44,VALID,0.0839844,
2012-02-25, 00:51:05,VALID,997.336,VALID,0,VALID,90.5712,VALID,0.104696,VALID,23.9531,VALID,44,VALID,0.24375,
2012-02-25, 00:52:05,VALID,997.359,VALID,0,VALID,90.6246,VALID,0,VALID,23.9354,VALID,44,VALID,0.404297,
2012-02-25, 00:53:05,VALID,997.376,VALID,0,VALID,90.8077,VALID,0,VALID,23.914,VALID,44,VALID,0.470313,
2012-02-25, 00:54:05,VALID,997.381,VALID,0,VALID,90.9374,VALID,0,VALID,23.914,VALID,44,VALID,0.439063,
2012-02-25, 00:55:05,VALID,997.425,VALID,0,VALID,90.9909,VALID,0,VALID,23.8945,VALID,44,VALID,0.335156,
2012-02-25, 00:56:05,VALID,997.4,VALID,0,VALID,91.0671,VALID,0,VALID,23.875,VALID,44,VALID,0.569922,
2012-02-25, 00:57:05,VALID,997.401,VALID,0,VALID,91.2426,VALID,0,VALID,23.8945,VALID,44,VALID,0.534375,
2012-02-25, 00:58:05,VALID,997.431,VALID,0,VALID,91.3418,VALID,0,VALID,23.914,VALID,44,VALID,0.639844,
2012-02-25, 00:59:05,VALID,997.436,VALID,0,VALID,91.3952,VALID,0,VALID,23.914,VALID,44,VALID,0.497266,
2012-02-25, 01:00:05,VALID,997.417,VALID,0,VALID,91.3647,VALID,0,VALID,23.9549,VALID,44,VALID,0.449219,
2012-02-25, 01:01:05,VALID,997.434,VALID,0,VALID,91.3342,VALID,0,VALID,23.9531,VALID,44,VALID,0.264453,
2012-02-25, 01:02:05,VALID,997.422,VALID,0,VALID,91.3037,VALID,0,VALID,23.9726,VALID,44,VALID,0.275781,
2012-02-25, 01:03:05,VALID,997.427,VALID,0,VALID,91.296,VALID,0.104696,VALID,23.9921,VALID,89,VALID,0.621484,
2012-02-25, 01:04:05,VALID,997.411,VALID,0,VALID,91.296,VALID,0.104696,VALID,23.9921,VALID,143,VALID,0.645703,
2012-02-25, 01:05:05,VALID,997.394,VALID,0,VALID,91.3647,VALID,0,VALID,24.0525,VALID,148,VALID,0.647266,
2012-02-25, 01:06:05,VALID,997.385,VALID,0,VALID,91.4028,VALID,0,VALID,24.0701,VALID,170,VALID,0.680078,
2012-02-25, 01:07:05,VALID,997.377,VALID,0,VALID,91.4257,VALID,0,VALID,24.111,VALID,171,VALID,1.03516,
2012-02-25, 01:08:05,VALID,997.371,VALID,0,VALID,91.3266,VALID,0,VALID,24.1696,VALID,170,VALID,1.36914,
2012-02-25, 01:09:05,VALID,997.335,VALID,0,VALID,91.0443,VALID,0,VALID,24.1677,VALID,156,VALID,1.64609,
2012-02-25, 01:10:05,VALID,997.283,VALID,0,VALID,90.6475,VALID,0,VALID,24.2067,VALID,147,VALID,1.41328,
2012-02-25, 01:11:05,VALID,997.236,VALID,0,VALID,90.3347,VALID,0,VALID,24.2263,VALID,163,VALID,1.32773,
2012-02-25, 01:12:05,VALID,997.225,VALID,0,VALID,90.1211,VALID,0,VALID,24.2458,VALID,164,VALID,0.887109,
2012-02-25, 01:13:05,VALID,997.17,VALID,0,VALID,89.9761,VALID,0,VALID,24.2653,VALID,173,VALID,0.80625,
2012-02-25, 01:14:05,VALID,997.156,VALID,0,VALID,89.7396,VALID,0,VALID,24.2848,VALID,179,VALID,1.05586,
2012-02-25, 01:15:05,VALID,997.14,VALID,0,VALID,89.4649,VALID,0,VALID,24.2848,VALID,165,VALID,0.951953,
2012-02-25, 01:16:05,VALID,997.164,VALID,0,VALID,89.2894,VALID,0,VALID,24.3043,VALID,165,VALID,0.4625,
2012-02-25, 01:17:05,VALID,997.151,VALID,0,VALID,89.1979,VALID,0,VALID,24.3452,VALID,157,VALID,0.591797,
2012-02-25, 01:18:05,VALID,997.156,VALID,0,VALID,89.0911,VALID,0,VALID,24.3257,VALID,120,VALID,0.75,
2012-02-25, 01:19:05,VALID,997.094,VALID,0,VALID,88.9995,VALID,0,VALID,24.3452,VALID,120,VALID,0.386328,
2012-02-25, 01:20:05,VALID,997.086,VALID,0,VALID,88.9614,VALID,0.104696,VALID,24.3238,VALID,120,VALID,0.341797,
2012-02-25, 01:21:05,VALID,997.098,VALID,0,VALID,88.908,VALID,0,VALID,24.3452,VALID,120,VALID,0.266406,
2012-02-25, 01:22:05,VALID,997.059,VALID,0,VALID,88.908,VALID,0,VALID,24.3238,VALID,120,VALID,0.163672,
2012-02-25, 01:23:05,VALID,997.067,VALID,0,VALID,88.9232,VALID,0,VALID,24.3238,VALID,120,VALID,0.238281,
2012-02-25, 01:24:05,VALID,997.09,VALID,0,VALID,88.8927,VALID,0,VALID,24.3257,VALID,120,VALID,0.49375,
2012-02-25, 01:25:05,VALID,997.12,VALID,0,VALID,88.8698,VALID,0,VALID,24.3257,VALID,120,VALID,0.939453,
2012-02-25, 01:26:05,VALID,997.107,VALID,0,VALID,88.8927,VALID,0,VALID,24.3043,VALID,123,VALID,0.923437,
2012-02-25, 01:27:05,VALID,997.1,VALID,0,VALID,88.9461,VALID,0,VALID,24.3257,VALID,129,VALID,0.710938,
2012-02-25, 01:28:05,VALID,997.092,VALID,0,VALID,89.0148,VALID,0,VALID,24.3043,VALID,132,VALID,0.670313,
2012-02-25, 01:29:05,VALID,997.069,VALID,0,VALID,89.0071,VALID,0,VALID,24.3257,VALID,131,VALID,0.892578,
2012-02-25, 01:30:05,VALID,997.057,VALID,0,VALID,89.0834,VALID,0,VALID,24.3043,VALID,131,VALID,0.511328,
2012-02-25, 01:31:05,VALID,997.052,VALID,0,VALID,89.1292,VALID,0,VALID,24.3043,VALID,131,VALID,0.475781,
2012-02-25, 01:32:05,VALID,997.08,VALID,0,VALID,89.1597,VALID,0,VALID,24.3043,VALID,131,VALID,0.35625,
2012-02-25, 01:33:05,VALID,997.037,VALID,0,VALID,89.1903,VALID,0,VALID,24.3257,VALID,131,VALID,0.529297,
2012-02-25, 01:34:05,VALID,996.979,VALID,0,VALID,89.175,VALID,0,VALID,24.2866,VALID,131,VALID,0.414844,
2012-02-25, 01:35:05,VALID,996.955,VALID,0,VALID,89.1445,VALID,0,VALID,24.3062,VALID,131,VALID,0.290625,
2012-02-25, 01:36:05,VALID,996.901,VALID,0,VALID,89.114,VALID,0,VALID,24.2653,VALID,131,VALID,0.476953,
2012-02-25, 01:37:05,VALID,996.944,VALID,0,VALID,89.0758,VALID,0,VALID,24.2848,VALID,177,VALID,0.840625,
2012-02-25, 01:38:05,VALID,996.973,VALID,0,VALID,88.9919,VALID,0,VALID,24.2866,VALID,171,VALID,0.88125,
2012-02-25, 01:39:05,VALID,996.99,VALID,0,VALID,88.9537,VALID,0,VALID,24.2866,VALID,164,VALID,1.00312,
2012-02-25, 01:40:05,VALID,997.007,VALID,0,VALID,88.9919,VALID,0,VALID,24.3062,VALID,130,VALID,0.932422,
2012-02-25, 01:41:05,VALID,997.008,VALID,0,VALID,89.0758,VALID,0,VALID,24.3062,VALID,130,VALID,0.919922,
2012-02-25, 01:42:05,VALID,997.041,VALID,0,VALID,89.1216,VALID,0,VALID,24.3043,VALID,130,VALID,0.661328,
2012-02-25, 01:43:05,VALID,997.038,VALID,0,VALID,89.2132,VALID,0,VALID,24.3043,VALID,130,VALID,0.426172,
2012-02-25, 01:44:05,VALID,997.047,VALID,0,VALID,89.3123,VALID,0,VALID,24.2848,VALID,119,VALID,0.715625,
2012-02-25, 01:45:05,VALID,997.047,VALID,0,VALID,89.4802,VALID,0,VALID,24.3257,VALID,119,VALID,0.724219,
2012-02-25, 01:46:05,VALID,997.032,VALID,0,VALID,89.4497,VALID,0,VALID,24.3452,VALID,119,VALID,0.467578,
2012-02-25, 01:47:05,VALID,997.035,VALID,0,VALID,89.4726,VALID,0,VALID,24.3257,VALID,119,VALID,0.4375,
2012-02-25, 01:48:05,VALID,997.006,VALID,0,VALID,89.5641,VALID,0,VALID,24.3238,VALID,119,VALID,0.330859,
2012-02-25, 01:49:05,VALID,996.998,VALID,0,VALID,89.5336,VALID,0,VALID,24.3452,VALID,119,VALID,0.065625,
2012-02-25, 01:50:05,VALID,996.994,VALID,0,VALID,89.5336,VALID,0,VALID,24.3238,VALID,119,VALID,0,
2012-02-25, 01:51:05,VALID,996.965,VALID,0,VALID,89.5717,VALID,0,VALID,24.3238,VALID,119,VALID,0,
2012-02-25, 01:52:05,VALID,996.896,VALID,0,VALID,89.6023,VALID,0,VALID,24.3238,VALID,119,VALID,0,
2012-02-25, 01:53:05,VALID,996.846,VALID,0,VALID,89.5946,VALID,0,VALID,24.3043,VALID,119,VALID,0,
2012-02-25, 01:54:05,VALID,996.759,VALID,0,VALID,89.6557,VALID,0,VALID,24.3043,VALID,119,VALID,0,
2012-02-25, 01:55:05,VALID,996.722,VALID,0,VALID,89.732,VALID,0,VALID,24.3043,VALID,119,VALID,0,
2012-02-25, 01:56:05,VALID,996.75,VALID,0,VALID,89.7472,VALID,0,VALID,24.3238,VALID,119,VALID,0,
2012-02-25, 01:57:05,VALID,996.769,VALID,0,VALID,89.7472,VALID,0,VALID,24.3238,VALID,119,VALID,0,
2012-02-25, 01:58:05,VALID,996.866,VALID,0,VALID,89.793,VALID,0,VALID,24.3043,VALID,119,VALID,0,
2012-02-25, 01:59:05,VALID,996.949,VALID,0,VALID,89.8846,VALID,0,VALID,24.3452,VALID,118,VALID,0.663672,
2012-02-25, 02:00:05,VALID,997.028,VALID,0,VALID,89.8159,VALID,0,VALID,24.3238,VALID,94,VALID,0.803516,
2012-02-25, 02:01:05,VALID,997.072,VALID,0,VALID,89.854,VALID,0,VALID,24.3452,VALID,94,VALID,0.966016,
2012-02-25, 02:02:05,VALID,997.069,VALID,0,VALID,89.8083,VALID,0,VALID,24.3433,VALID,101,VALID,1.02227,
2012-02-25, 02:03:05,VALID,997.012,VALID,0,VALID,89.8388,VALID,0,VALID,24.3433,VALID,101,VALID,0.921484,
2012-02-25, 02:04:05,VALID,996.941,VALID,0,VALID,89.8464,VALID,0,VALID,24.3433,VALID,101,VALID,0.499219,
2012-02-25, 02:05:05,VALID,996.852,VALID,0,VALID,89.8235,VALID,0,VALID,24.3647,VALID,101,VALID,0.161719,
2012-02-25, 02:06:05,VALID,996.813,VALID,0,VALID,89.9074,VALID,0,VALID,24.3629,VALID,101,VALID,0,
2012-02-25, 02:07:05,VALID,996.835,VALID,0,VALID,90.0066,VALID,0,VALID,24.3647,VALID,101,VALID,0.307422,
2012-02-25, 02:08:05,VALID,996.846,VALID,0,VALID,90.0066,VALID,0,VALID,24.3433,VALID,85,VALID,0.764844,
2012-02-25, 02:09:05,VALID,996.874,VALID,0,VALID,90.0295,VALID,0,VALID,24.3433,VALID,65,VALID,1.04648,
2012-02-25, 02:10:05,VALID,996.864,VALID,0,VALID,90.2737,VALID,0,VALID,24.3842,VALID,45,VALID,1.38164,
2012-02-25, 02:11:05,VALID,996.823,VALID,0,VALID,90.5712,VALID,0,VALID,24.3824,VALID,42,VALID,1.26445,
2012-02-25, 02:12:05,VALID,996.778,VALID,0,VALID,90.7391,VALID,0,VALID,24.4019,VALID,42,VALID,1.23594,
2012-02-25, 02:13:05,VALID,996.759,VALID,0,VALID,90.8917,VALID,0,VALID,24.4233,VALID,37,VALID,0.977344,
2012-02-25, 02:14:05,VALID,996.707,VALID,0,VALID,90.9756,VALID,0,VALID,24.4019,VALID,40,VALID,0.971094,
2012-02-25, 02:15:05,VALID,996.751,VALID,0,VALID,91.029,VALID,0,VALID,24.4019,VALID,50,VALID,0.771094,
2012-02-25, 02:16:05,VALID,996.747,VALID,0,VALID,91.0748,VALID,0,VALID,24.4019,VALID,52,VALID,0.993359,
2012-02-25, 02:17:05,VALID,996.74,VALID,0,VALID,91.1282,VALID,0,VALID,24.4428,VALID,59,VALID,1.11055,
2012-02-25, 02:18:05,VALID,996.726,VALID,0,VALID,91.174,VALID,0,VALID,24.4409,VALID,63,VALID,1.10078,
2012-02-25, 02:19:05,VALID,996.69,VALID,0,VALID,91.2121,VALID,0,VALID,24.4409,VALID,63,VALID,0.560156,
2012-02-25, 02:20:05,VALID,996.659,VALID,0,VALID,91.2655,VALID,0,VALID,24.4604,VALID,63,VALID,0.491797,
2012-02-25, 02:21:05,VALID,996.617,VALID,0,VALID,91.2884,VALID,0,VALID,24.48,VALID,60,VALID,0.380469,
2012-02-25, 02:22:05,VALID,996.569,VALID,0,VALID,91.3113,VALID,0,VALID,24.48,VALID,60,VALID,0.0835937,
2012-02-25, 02:23:04,VALID,996.544,VALID,0,VALID,91.3037,VALID,0,VALID,24.5013,VALID,60,VALID,0.144922,
2012-02-25, 02:24:04,VALID,996.562,VALID,0,VALID,91.2503,VALID,0,VALID,24.48,VALID,60,VALID,0.0382813,
2012-02-25, 02:25:04,VALID,996.54,VALID,0,VALID,91.235,VALID,0,VALID,24.48,VALID,60,VALID,0.1,
2012-02-25, 02:26:04,VALID,996.561,VALID,0,VALID,91.235,VALID,0,VALID,24.48,VALID,60,VALID,0.634375,
2012-02-25, 02:27:04,VALID,996.535,VALID,0,VALID,91.3113,VALID,0,VALID,24.48,VALID,60,VALID,0.791406,
2012-02-25, 02:28:04,VALID,996.53,VALID,0,VALID,91.3494,VALID,0,VALID,24.48,VALID,60,VALID,0.977734,
2012-02-25, 02:29:04,VALID,996.527,VALID,0,VALID,91.4028,VALID,0,VALID,24.4995,VALID,60,VALID,0.983984,
2012-02-25, 02:30:04,VALID,996.496,VALID,0,VALID,91.4028,VALID,0,VALID,24.4995,VALID,60,VALID,0.759375,
2012-02-25, 02:31:04,VALID,996.483,VALID,0,VALID,91.3494,VALID,0,VALID,24.4995,VALID,60,VALID,0.621094,
2012-02-25, 02:32:04,VALID,996.457,VALID,0,VALID,91.3647,VALID,0,VALID,24.5209,VALID,60,VALID,0.51875,
2012-02-25, 02:33:04,VALID,996.503,VALID,0,VALID,91.4028,VALID,0,VALID,24.519,VALID,60,VALID,0.667969,
2012-02-25, 02:34:04,VALID,996.488,VALID,0,VALID,91.4944,VALID,0.104696,VALID,24.519,VALID,60,VALID,0.589844,
2012-02-25, 02:35:04,VALID,996.543,VALID,0,VALID,91.6088,VALID,0.104696,VALID,24.5385,VALID,60,VALID,0.766797,
2012-02-25, 02:36:04,VALID,996.539,VALID,0,VALID,91.6775,VALID,0,VALID,24.5385,VALID,52,VALID,0.944531,
2012-02-25, 02:37:04,VALID,996.534,VALID,0,VALID,91.708,VALID,0,VALID,24.5385,VALID,52,VALID,0.816797,
2012-02-25, 02:38:04,VALID,996.536,VALID,0,VALID,91.792,VALID,0.104696,VALID,24.558,VALID,52,VALID,0.953516,
2012-02-25, 02:39:04,VALID,996.584,VALID,0,VALID,91.792,VALID,0.104696,VALID,24.558,VALID,52,VALID,0.994141,
2012-02-25, 02:40:04,VALID,996.566,VALID,0,VALID,91.8454,VALID,0.104696,VALID,24.5562,VALID,52,VALID,0.757813,
2012-02-25, 02:41:04,VALID,996.579,VALID,0,VALID,91.9064,VALID,0,VALID,24.5775,VALID,52,VALID,0.750391,
2012-02-25, 02:42:04,VALID,996.538,VALID,0,VALID,91.8377,VALID,0.104696,VALID,24.5775,VALID,52,VALID,0.821484,
2012-02-25, 02:43:04,VALID,996.538,VALID,0,VALID,91.7614,VALID,0,VALID,24.5775,VALID,52,VALID,0.560938,
2012-02-25, 02:44:04,VALID,996.526,VALID,0,VALID,91.7385,VALID,0,VALID,24.5971,VALID,52,VALID,0.539453,
2012-02-25, 02:45:04,VALID,996.523,VALID,0,VALID,91.6546,VALID,0,VALID,24.5775,VALID,52,VALID,0.233594,
2012-02-25, 02:46:04,VALID,996.531,VALID,0,VALID,91.6241,VALID,0.104696,VALID,24.6184,VALID,52,VALID,0.169141,
2012-02-25, 02:47:04,VALID,996.522,VALID,0,VALID,91.6317,VALID,0,VALID,24.5971,VALID,52,VALID,0.166797,
2012-02-25, 02:48:04,VALID,996.483,VALID,0,VALID,91.5631,VALID,0.104696,VALID,24.5775,VALID,52,VALID,0,
2012-02-25, 02:49:04,VALID,996.51,VALID,0,VALID,91.5478,VALID,0,VALID,24.6184,VALID,52,VALID,0,
2012-02-25, 02:50:04,VALID,996.535,VALID,0,VALID,91.5783,VALID,0,VALID,24.5971,VALID,52,VALID,0,
2012-02-25, 02:51:04,VALID,996.57,VALID,0,VALID,91.5783,VALID,0.104696,VALID,24.5971,VALID,52,VALID,0,
2012-02-25, 02:52:04,VALID,996.645,VALID,0,VALID,91.6394,VALID,0.104696,VALID,24.5971,VALID,52,VALID,0,
2012-02-25, 02:53:04,VALID,996.689,VALID,0,VALID,91.6851,VALID,0.104696,VALID,24.5971,VALID,52,VALID,0.629297,
2012-02-25, 02:54:04,VALID,996.7,VALID,0,VALID,91.5554,VALID,0.104696,VALID,24.5971,VALID,52,VALID,1.00547,
2012-02-25, 02:55:04,VALID,996.7,VALID,0,VALID,91.6546,VALID,0,VALID,24.5971,VALID,40,VALID,1.45859,
2012-02-25, 02:56:04,VALID,996.703,VALID,0,VALID,91.8377,VALID,0.104696,VALID,24.6166,VALID,32,VALID,1.81133,
2012-02-25, 02:57:04,VALID,996.657,VALID,0,VALID,91.9827,VALID,0,VALID,24.6166,VALID,30,VALID,1.45742,
2012-02-25, 02:58:04,VALID,996.687,VALID,0,VALID,92.1429,VALID,0.104696,VALID,24.6166,VALID,17,VALID,2.25352,
2012-02-25, 02:59:04,VALID,996.679,VALID,0,VALID,92.2497,VALID,0.104696,VALID,24.5971,VALID,21,VALID,1.65273,
2012-02-25, 03:00:04,VALID,996.655,VALID,0,VALID,92.2879,VALID,0.104696,VALID,24.5971,VALID,21,VALID,1.40977,
2012-02-25, 03:01:04,VALID,996.636,VALID,0,VALID,92.3413,VALID,0,VALID,24.5971,VALID,21,VALID,0.913672,
2012-02-25, 03:02:04,VALID,996.661,VALID,0,VALID,92.3031,VALID,0.104696,VALID,24.5971,VALID,21,VALID,0.527344,
2012-02-25, 03:03:04,VALID,996.656,VALID,0,VALID,92.3108,VALID,0.104696,VALID,24.5971,VALID,21,VALID,0.469141,
2012-02-25, 03:04:04,VALID,996.654,VALID,0,VALID,92.2879,VALID,0.104696,VALID,24.6166,VALID,21,VALID,0.500391,
2012-02-25, 03:05:04,VALID,996.63,VALID,0,VALID,92.2421,VALID,0.104696,VALID,24.5952,VALID,21,VALID,0.159766,
2012-02-25, 03:06:04,VALID,996.568,VALID,0,VALID,92.2345,VALID,0,VALID,24.6166,VALID,21,VALID,0.216016,
2012-02-25, 03:07:04,VALID,996.492,VALID,0,VALID,92.204,VALID,0.104696,VALID,24.6166,VALID,21,VALID,0,
2012-02-25, 03:08:04,VALID,996.485,VALID,0,VALID,92.1811,VALID,0.104696,VALID,24.6166,VALID,21,VALID,0,
2012-02-25, 03:09:04,VALID,996.443,VALID,0,VALID,92.0819,VALID,0.104696,VALID,24.6166,VALID,21,VALID,0,
2012-02-25, 03:10:04,VALID,996.428,VALID,0,VALID,92.0361,VALID,0.104696,VALID,24.6166,VALID,21,VALID,0.269531,
2012-02-25, 03:11:04,VALID,996.381,VALID,0,VALID,92.0361,VALID,0.104696,VALID,24.6166,VALID,21,VALID,0.298438,
2012-02-25, 03:12:04,VALID,996.41,VALID,0,VALID,92.0437,VALID,0.104696,VALID,24.6166,VALID,21,VALID,0.370703,
2012-02-25, 03:13:04,VALID,996.395,VALID,0,VALID,92.0132,VALID,0.104696,VALID,24.6166,VALID,21,VALID,0.464063,
2012-02-25, 03:14:04,VALID,996.418,VALID,0,VALID,91.998,VALID,0.104696,VALID,24.6166,VALID,21,VALID,0.257031,
2012-02-25, 03:15:04,VALID,996.477,VALID,0,VALID,91.9522,VALID,0,VALID,24.6166,VALID,21,VALID,0.227344,
2012-02-25, 03:16:04,VALID,996.529,VALID,0,VALID,91.9369,VALID,0.104696,VALID,24.5971,VALID,21,VALID,0.0492188,
2012-02-25, 03:17:04,VALID,996.576,VALID,0,VALID,91.9217,VALID,0,VALID,24.6166,VALID,21,VALID,0,
2012-02-25, 03:18:04,VALID,996.523,VALID,0,VALID,91.8835,VALID,0.104696,VALID,24.6166,VALID,21,VALID,0,
2012-02-25, 03:19:04,VALID,996.569,VALID,0,VALID,91.8454,VALID,0,VALID,24.5971,VALID,21,VALID,0,
2012-02-25, 03:20:04,VALID,996.604,VALID,0,VALID,91.7996,VALID,0,VALID,24.6184,VALID,21,VALID,0,
2012-02-25, 03:21:04,VALID,996.603,VALID,0,VALID,91.7385,VALID,0,VALID,24.5989,VALID,21,VALID,0,
2012-02-25, 03:22:04,VALID,996.587,VALID,0,VALID,91.6623,VALID,0,VALID,24.5989,VALID,21,VALID,0,
2012-02-25, 03:23:04,VALID,996.61,VALID,0,VALID,91.6394,VALID,0,VALID,24.5989,VALID,21,VALID,0,
2012-02-25, 03:24:04,VALID,996.623,VALID,0,VALID,91.5554,VALID,0,VALID,24.6203,VALID,21,VALID,0,
2012-02-25, 03:25:04,VALID,996.648,VALID,0,VALID,91.4944,VALID,0,VALID,24.5989,VALID,21,VALID,0,
2012-02-25, 03:26:04,VALID,996.647,VALID,0,VALID,91.5173,VALID,0,VALID,24.5989,VALID,21,VALID,0.607422,
2012-02-25, 03:27:04,VALID,996.614,VALID,0,VALID,91.6165,VALID,0,VALID,24.5989,VALID,21,VALID,0.741016,
2012-02-25, 03:28:04,VALID,996.614,VALID,0,VALID,91.6928,VALID,0,VALID,24.6184,VALID,21,VALID,0.534766,
2012-02-25, 03:29:04,VALID,996.585,VALID,0,VALID,91.7843,VALID,0,VALID,24.6184,VALID,21,VALID,0.134766,
2012-02-25, 03:30:04,VALID,996.59,VALID,0,VALID,91.792,VALID,0,VALID,24.6184,VALID,21,VALID,0.123828,
2012-02-25, 03:31:04,VALID,996.593,VALID,0,VALID,91.7691,VALID,0,VALID,24.6184,VALID,24,VALID,0.602734,
2012-02-25, 03:32:04,VALID,996.632,VALID,0,VALID,91.7538,VALID,0,VALID,24.638,VALID,56,VALID,0.421094,
2012-02-25, 03:33:04,VALID,996.671,VALID,0,VALID,91.8072,VALID,0,VALID,24.638,VALID,70,VALID,0.94375,
2012-02-25, 03:34:04,VALID,996.712,VALID,0,VALID,91.9217,VALID,0,VALID,24.6361,VALID,70,VALID,1.20117,
2012-02-25, 03:35:04,VALID,996.725,VALID,0,VALID,92.0056,VALID,0,VALID,24.6575,VALID,63,VALID,0.964063,
2012-02-25, 03:36:04,VALID,996.73,VALID,0,VALID,92.0666,VALID,0,VALID,24.6575,VALID,50,VALID,0.878125,
2012-02-25, 03:37:04,VALID,996.695,VALID,0,VALID,92.204,VALID,0,VALID,24.677,VALID,47,VALID,0.732813,
2012-02-25, 03:38:04,VALID,996.688,VALID,0,VALID,92.3108,VALID,0,VALID,24.6556,VALID,68,VALID,0.889844,
2012-02-25, 03:39:04,VALID,996.657,VALID,0,VALID,92.4176,VALID,0,VALID,24.6556,VALID,68,VALID,0.964063,
2012-02-25, 03:40:04,VALID,996.648,VALID,0,VALID,92.5473,VALID,0,VALID,24.677,VALID,81,VALID,1,
2012-02-25, 03:41:04,VALID,996.704,VALID,0,VALID,92.5549,VALID,0,VALID,24.6946,VALID,81,VALID,1.05195,
2012-02-25, 03:42:04,VALID,996.714,VALID,0,VALID,92.5473,VALID,0,VALID,24.6751,VALID,98,VALID,1.33125,
2012-02-25, 03:43:04,VALID,996.754,VALID,0,VALID,92.5626,VALID,0,VALID,24.6556,VALID,98,VALID,1.3168,
2012-02-25, 03:44:04,VALID,996.735,VALID,0,VALID,92.5626,VALID,0,VALID,24.6751,VALID,98,VALID,0.898828,
2012-02-25, 03:45:04,VALID,996.714,VALID,0,VALID,92.5626,VALID,0,VALID,24.6556,VALID,99,VALID,0.975781,
2012-02-25, 03:46:04,VALID,996.675,VALID,0,VALID,92.5473,VALID,0,VALID,24.6556,VALID,121,VALID,0.913672,